User: anonymous   Login
Location: Newark
(40.4500°N, 15.1500°E)
Time: 22:08:54
(UTC+00:00)
Language:

UKube-1 - Orbit

View from above orbital plane
View from above orbital plane
View from above satellite
View from above satellite

Ground track
Ground track

The orbit data is extracted from the following two-line orbital elements,

1 40074U 14037F   20052.46833337  .00000190  00000-0  29903-4 0  9993
2 40074  98.4533 233.8458 0005284 124.0037 236.1685 14.84195595304401
Epoch (UTC): 21 February 2020 11:14:24
Eccentricity: 0.0005284
inclination: 98.4533°
perigee height: 612 km
apogee height: 620 km
right ascension of ascending node: 233.8458°
argument of perigee: 124.0037°
revolutions per day: 14.84195595
mean anomaly at epoch: 236.1685°
orbit number at epoch: 30440

The dashed part of the orbit path shows where the satellite is in the earth's shadow,  

DLR